{"data":{"norad_id":65329,"epoch":"2026-09-20T13:02:43.812960Z","epoch_age_seconds":114095,"freshness":"FRESH","line1":"1 65329U 25189G   26263.54356265  .00015791  00000+0  47747-3 0  9999","line2":"2 65329  53.1591  19.2607 0000771  72.8608 287.2479 15.34402573 60977","mean_motion":15.34402573,"eccentricity":7.71e-5,"inclination_deg":53.1591,"raan_deg":19.2607,"arg_perigee_deg":72.8608,"mean_anomaly_deg":287.2479,"bstar":0.00047747,"rev_number":6097,"period_min":93.847600710456,"perigee_km":462.16816452666,"apogee_km":463.22302091246,"semimajor_km":6840.8325927196,"source":"CELESTRAK","updated_at":"2026-09-21T09:00:35.569968Z"}}